Waarnemingen

Advertentie
Mijn weer
Angermünde, Duitsland (10291): temperatuur & dauwpunt: 19.02.2018 06:00:00 - 25.02.2018 06:00:00 (CET)Angermünde, Duitsland (10291): temperatuur 5cm & temperatuur -5cm: 19.02.2018 06:00:00 - 25.02.2018 06:00:00 (CET)Angermünde, Duitsland (10291): temperatuur -20cm & temperatuur -100cm: 19.02.2018 06:00:00 - 25.02.2018 06:00:00 (CET)Angermünde, Duitsland (10291): windsnelheid & windstoten: 19.02.2018 06:00:00 - 25.02.2018 06:00:00 (CET)Angermünde, Duitsland (10291): windrichting: 19.02.2018 06:00:00 - 25.02.2018 06:00:00 (CET)Angermünde, Duitsland (10291): luchtdruk: 19.02.2018 06:00:00 - 25.02.2018 06:00:00 (CET)Angermünde, Duitsland (10291): zicht: 19.02.2018 06:00:00 - 25.02.2018 06:00:00 (CET)Angermünde, Duitsland (10291): Zonneschijnduur: 19.02.2018 06:00:00 - 25.02.2018 06:00:00 (CET)Angermünde, Duitsland (10291): neerslag: 19.02.2018 06:00:00 - 25.02.2018 06:00:00 (CET)
Datum & Tijd tt [°C] td [°C] tt 5cm [°C] tt -5cm [°C] tt -20cm [°C] tt -100cm [°C] ff [km/u] ff [kn] fx [km/u] fx [kn] dd ppp [hPa] vv [km] sd [min] rr [mm]
25.02.2018 06:00:00 -9,9 -11,2 -11,6 -4,2 0,0 2,5 5 3 7 4 NW 1033,9 40 0 0,0
25.02.2018 05:00:00 -9,3 -11,3 -11,0 -4,0 0,0 2,5 3 2 7 4 N 1033,9 25 0 0,0
25.02.2018 04:00:00 -9,2 -11,3 -10,7 -3,8 0,1 2,5 4 2 10 5 NW 1034,2 28 0 0,0
25.02.2018 03:00:00 -8,4 -11,1 -10,7 -3,6 0,1 2,5 6 4 10 5 NNO 1034,1 31 0 0,0
25.02.2018 02:00:00 -8,2 -11,0 -10,6 -3,3 0,1 2,6 6 4 10 5 NNO 1034,3 33 0 0,0
25.02.2018 01:00:00 -7,8 -11,2 -10,9 -3,1 0,1 2,6 8 4 11 6 NNO 1034,4 45 0 0,0
25.02.2018 00:00:00 -7,4 -10,6 -9,9 -2,8 0,1 2,6 9 5 15 8 NO 1034,3 43 0 0,0
24.02.2018 23:00:00 -6,3 -10,9 -8,0 -2,5 0,2 2,6 9 5 24 13 NO 1034,1 43 0 0,0
24.02.2018 22:00:00 -5,3 -11,6 -6,5 -2,1 0,2 2,6 16 9 27 15 NO 1033,9 46 0 0,0
24.02.2018 21:00:00 -4,9 -10,6 -6,1 -1,4 0,2 2,6 18 10 29 15 NO 1033,8 48 0 0,0
24.02.2018 20:00:00 -4,2 -10,6 -5,3 -0,6 0,2 2,6 20 11 29 16 NO 1033,3 48 0 0,0
24.02.2018 19:00:00 -3,6 -9,4 -4,8 -0,2 0,2 2,6 16 9 27 14 NO 1033,1 49 0 0,0
24.02.2018 18:00:00 -2,8 -9,9 -3,9 -0,1 0,2 2,6 17 9 34 19 NO 1032,5 70 7 0,0
24.02.2018 17:00:00 -1,8 -10,6 -1,3 -0,1 0,2 2,6 19 11 35 19 NO 1032,1 59 34 0,0
24.02.2018 16:00:00 -1,5 -10,3 -1,4 -0,2 0,2 2,6 24 13 37 20 NNO 1031,9 48 50 0,0
24.02.2018 15:00:00 -0,9 -10,8 0,4 -0,2 0,2 2,6 25 13 42 23 ONO 1031,7 70 53 0,0
24.02.2018 14:00:00 -1,5 -10,5 -1,4 -0,2 0,2 2,6 24 13 41 22 NO 1031,4 70 21 0,0
24.02.2018 13:00:00 -1,1 -9,5 -0,5 -0,3 0,2 2,6 25 14 47 25 NO 1031,3 50 37 0,0
24.02.2018 12:00:00 -1,5 -10,0 -1,0 -0,3 0,2 2,6 30 16 46 25 NO 1031,4 50 52 0,0
24.02.2018 11:00:00 -1,6 -9,4 -0,1 -0,4 0,2 2,6 30 16 48 26 NO 1031,3 50 37 0,0
24.02.2018 10:00:00 -1,3 -8,4 0,5 -0,8 0,2 2,6 29 16 43 23 NO 1030,9 70 41 0,0
24.02.2018 09:00:00 -1,8 -8,8 -0,4 -1,2 0,2 2,6 20 11 32 17 NNO 1030,5 70 59 0,0
24.02.2018 08:00:00 -2,9 -8,2 -3,3 -1,5 0,2 2,6 12 7 26 14 NNO 1030,5 70 20 0,0
24.02.2018 07:00:00 -3,0 -7,8 -4,5 -1,2 0,2 2,6 20 11 27 15 NNO 1030,1 70 0 0,0
24.02.2018 06:00:00 -2,0 -6,1 -3,0 -0,7 0,2 2,6 19 11 36 19 NO 1029,5 40 0 0,0
24.02.2018 05:00:00 -1,5 -2,8 -1,9 -0,6 0,2 2,6 13 7 22 12 NNO 1028,8 17 0 0,0
24.02.2018 04:00:00 -2,5 -4,3 -2,7 -0,6 0,2 2,6 11 6 19 10 NW 1028,4 15 0 0,0
24.02.2018 03:00:00 -2,8 -4,8 -2,9 -0,7 0,2 2,6 11 6 16 9 NW 1028,3 17 0 0,0
24.02.2018 02:00:00 -3,6 -5,7 -3,5 -0,7 0,3 2,6 9 5 12 6 WNW 1028,5 18 0 0,0
24.02.2018 01:00:00 -4,2 -6,0 -4,0 -0,7 0,3 2,6 12 6 15 8 WNW 1028,5 14 0 0,0
24.02.2018 00:00:00 -6,2 -7,7 -7,6 -0,8 0,3 2,6 7 4 9 5 WNW 1028,8 11 0 0,0
23.02.2018 23:00:00 -4,9 -6,9 -6,6 -0,4 0,3 2,6 8 4 16 9 N 1028,7 13 0 0,0
23.02.2018 22:00:00 -4,4 -6,3 -6,2 -0,1 0,3 2,6 10 5 17 9 NNO 1028,7 15 0 0,0
23.02.2018 21:00:00 -4,1 -6,9 -5,6 -0,1 0,3 2,6 11 6 16 9 NNO 1028,4 21 0 0,0
23.02.2018 20:00:00 -3,6 -7,5 -5,0 -0,1 0,3 2,6 11 6 16 9 NNO 1028,1 20 0 0,0
23.02.2018 19:00:00 -3,3 -7,8 -5,4 -0,1 0,3 2,6 8 5 13 7 NNO 1027,8 20 0 0,0
23.02.2018 18:00:00 -2,5 -8,3 -4,0 -0,1 0,3 2,6 10 5 15 8 NO 1027,7 23 0 0,0
23.02.2018 17:00:00 -1,8 -9,7 -1,9 -0,1 0,3 2,6 11 6 19 10 NNO 1027,7 22 44 0,0
23.02.2018 16:00:00 -1,3 -9,0 -0,9 -0,1 0,3 2,6 13 7 22 12 NNO 1027,7 19 60 0,0
23.02.2018 15:00:00 -1,3 -8,7 1,2 -0,1 0,3 2,6 14 8 22 12 NNO 1027,9 20 60 0,0
23.02.2018 14:00:00 -1,2 -8,9 1,4 -0,2 0,3 2,6 12 6 23 13 NO 1028,1 15 60 0,0
23.02.2018 13:00:00 -2,5 -8,4 -0,4 -0,2 0,3 2,6 14 8 22 12 NO 1028,4 12 60 0,0
23.02.2018 12:00:00 -2,7 -8,1 0,1 -0,3 0,3 2,6 8 4 16 9 NO 1028,7 6 58 0,0
23.02.2018 11:00:00 -3,9 -7,8 -1,3 -0,4 0,3 2,6 9 5 16 9 NO 1028,7 6 49 0,0
23.02.2018 10:00:00 -4,9 -7,8 -3,6 -0,6 0,3 2,6 9 5 15 8 NO 1028,4 6 58 0,0
23.02.2018 09:00:00 -5,7 -8,4 -4,6 -1,0 0,3 2,6 11 6 16 9 NO 1028,2 8 60 0,0
23.02.2018 08:00:00 -6,3 -8,3 -7,0 -1,2 0,3 2,6 11 6 19 10 NO 1028,1 8 15 0,0
23.02.2018 07:00:00 -6,2 -8,0 -7,2 -0,9 0,3 2,6 9 5 19 10 ONO 1027,4 8 0 0,0
23.02.2018 06:00:00 -5,4 -7,3 -6,4 -0,6 0,3 2,6 15 8 19 10 NO 1027,2 10 0 0,0
23.02.2018 05:00:00 -4,2 -6,9 -4,9 -0,4 0,3 2,6 11 6 19 10 ONO 1026,7 9 0 0,0
23.02.2018 04:00:00 -4,4 -6,3 -4,9 -0,3 0,4 2,6 8 5 11 6 O 1026,7 9 0 0,0
23.02.2018 03:00:00 -4,4 -5,3 -5,5 -0,1 0,4 2,6 7 4 11 6 O 1026,5 5 0 0,0
23.02.2018 02:00:00 -4,4 -5,4 -6,0 -0,1 0,4 2,6 7 4 11 6 N 1026,6 6 0 0,0
23.02.2018 01:00:00 -3,8 -5,2 -5,2 -0,1 0,4 2,6 7 4 14 8 N 1026,8 9 0 0,0
23.02.2018 00:00:00 -3,3 -4,5 -4,8 -0,1 0,4 2,6 11 6 15 8 N 1026,9 8 0 0,0
22.02.2018 23:00:00 -2,3 -3,5 -3,8 -0,1 0,4 2,6 8 4 16 9 NNO 1026,9 8 0 0,0
22.02.2018 22:00:00 -1,4 -3,0 -2,3 -0,1 0,4 2,6 11 6 20 11 NNO 1026,6 9 0 0,0
22.02.2018 21:00:00 -0,7 -2,4 -1,1 -0,1 0,4 2,6 9 5 16 8 NNO 1026,3 7 0 0,0
22.02.2018 20:00:00 -0,6 -2,2 -1,2 -0,1 0,4 2,6 7 4 14 8 NO 1026,5 11 0 0,0
22.02.2018 19:00:00 -0,5 -2,3 -1,1 -0,1 0,4 2,6 9 5 18 10 NNO 1026,3 12 0 0,0
22.02.2018 18:00:00 -0,1 -2,6 -0,6 -0,1 0,4 2,6 6 4 11 6 NO 1026,1 14 0 0,0
22.02.2018 17:00:00 0,1 -3,0 -0,3 -0,1 0,4 2,6 8 4 13 7 NNO 1026,1 19 0 0,0
22.02.2018 16:00:00 0,5 -3,1 0,5 -0,1 0,4 2,6 8 5 13 7 NNO 1026,0 20 0 0,0
22.02.2018 15:00:00 0,6 -3,0 0,9 -0,1 0,4 2,6 10 5 16 9 NNO 1026,3 20 0 0,0
22.02.2018 14:00:00 1,0 -3,7 1,6 -0,1 0,4 2,6 8 5 13 7 NO 1026,4 20 0 0,0
22.02.2018 13:00:00 0,9 -5,2 2,8 -0,1 0,4 2,6 3 2 7 4 ONO 1027,0 20 3 0,0
22.02.2018 12:00:00 0,5 -4,0 1,3 -0,1 0,4 2,6 4 2 7 4 NO 1027,3 16 0 0,0
22.02.2018 11:00:00 0,2 -3,2 1,0 -0,1 0,4 2,6 4 2 9 5 ONO 1027,0 14 29 0,0
22.02.2018 10:00:00 -0,6 -3,7 0,4 -0,1 0,4 2,6 3 2 5 3 O 1027,3 10 59 0,0
22.02.2018 09:00:00 -1,8 -3,3 -0,9 -0,2 0,4 2,6 3 1 5 3 ZO 1027,4 6 60 0,0
22.02.2018 08:00:00 -4,2 -4,7 -4,7 -0,2 0,4 2,6 5 3 7 4 NNW 1027,4 6 1 0,0
22.02.2018 07:00:00 -4,4 -4,8 -6,6 -0,2 0,4 2,6 4 2 8 5 N 1027,1 6 0 0,0
22.02.2018 06:00:00 -3,7 -4,3 -5,1 -0,1 0,5 2,6 4 2 11 6 NNW 1027,0 6 0 0,0
22.02.2018 05:00:00 -3,2 -3,6 -4,6 -0,1 0,5 2,6 7 4 13 7 NNO 1027,1 3,7 0 0,0
22.02.2018 04:00:00 -3,6 -4,0 -5,4 -0,1 0,5 2,6 5 3 9 5 NNW 1027,1 3,9 0 0,0
22.02.2018 03:00:00 -3,1 -3,6 -5,1 0,0 0,5 2,6 5 3 9 5 N 1027,3 4,1 0 0,0
22.02.2018 02:00:00 -3,1 -3,5 -4,4 0,0 0,5 2,6 7 4 11 6 NNW 1027,7 4,6 0 0,0
22.02.2018 01:00:00 -3,0 -3,5 -4,7 0,0 0,5 2,6 6 3 8 4 NNO 1027,5 4,3 0 0,0
22.02.2018 00:00:00 -2,5 -3,0 -4,4 0,1 0,5 2,6 7 4 9 5 NNO 1027,5 5 0 0,0
21.02.2018 23:00:00 -1,8 -2,5 -4,0 0,1 0,6 2,6 6 3 13 7 NO 1027,3 6 0 0,0
21.02.2018 22:00:00 -1,1 -2,2 -2,5 0,1 0,6 2,6 8 4 19 10 NNO 1027,3 11 0 0,0
21.02.2018 21:00:00 -0,7 -2,1 -1,7 0,1 0,6 2,6 10 5 16 8 N 1027,1 15 0 0,0
21.02.2018 20:00:00 -0,1 -1,9 -1,5 0,1 0,6 2,6 11 6 16 9 N 1026,8 21 0 0,0
21.02.2018 19:00:00 0,5 -2,6 -0,7 0,1 0,7 2,6 8 5 14 7 N 1026,4 22 0 0,0
21.02.2018 18:00:00 1,1 -1,9 -0,2 0,4 0,7 2,6 6 4 16 9 N 1026,1 17 0 0,0
21.02.2018 17:00:00 2,0 -2,3 1,2 1,1 0,6 2,6 11 6 20 11 N 1025,9 21 1 0,0
21.02.2018 16:00:00 3,0 -4,2 3,2 1,0 0,4 2,6 9 5 19 10 N 1025,8 18 35 0,0
21.02.2018 15:00:00 3,3 -3,7 4,5 0,1 0,4 2,6 10 6 23 13 NNO 1026,1 20 54 0,0
21.02.2018 14:00:00 2,7 -4,8 3,7 -0,1 0,4 2,6 15 8 23 12 N 1026,5 15 45 0,0
21.02.2018 13:00:00 2,6 -4,0 4,6 -0,1 0,4 2,6 10 5 19 10 N 1026,6 14 59 0,0
21.02.2018 12:00:00 2,4 -2,8 3,6 0,0 0,4 2,6 6 3 10 6 NO 1026,6 14 60 0,0
21.02.2018 11:00:00 1,3 -3,3 4,0 -0,1 0,4 2,6 4 2 8 5 NNO 1026,5 15 60 0,0
21.02.2018 10:00:00 0,6 -3,5 3,5 -0,1 0,4 2,6 5 3 11 6 NNO 1026,4 10 56 0,0
21.02.2018 09:00:00 -0,5 -3,3 0,9 -0,1 0,4 2,6 5 3 8 4 NNW 1026,4 10 13 0,0
21.02.2018 08:00:00 -1,0 -3,2 -2,0 -0,1 0,4 2,6 4 2 13 7 NNO 1025,9 10 0 0,0
21.02.2018 07:00:00 -1,1 -3,4 -1,7 -0,1 0,4 2,6 7 4 13 7 NNO 1025,9 10 0 0,0
21.02.2018 06:00:00 -1,7 -3,6 -2,2 -0,1 0,4 2,6 5 3 9 5 N 1025,5 6 0 0,0
21.02.2018 05:00:00 -1,9 -4,0 -3,8 -0,1 0,4 2,6 5 3 13 7 NO 1024,9 7 0 0,0
21.02.2018 04:00:00 -1,3 -3,9 -2,2 -0,1 0,5 2,6 10 5 15 8 NNO 1025,3 8 0 0,0
21.02.2018 03:00:00 -1,9 -4,3 -3,4 -0,1 0,5 2,6 9 5 14 8 NNO 1025,2 8 0 0,0
21.02.2018 02:00:00 -2,7 -5,2 -4,8 -0,1 0,5 2,6 10 6 15 8 NNO 1025,2 8 0 0,0
21.02.2018 01:00:00 -2,2 -4,7 -4,2 0,0 0,5 2,6 11 6 17 9 NNO 1024,9 8 0 0,0
21.02.2018 00:00:00 -2,3 -4,8 -4,6 0,0 0,5 2,6 9 5 16 9 NNO 1024,7 9 0 0,0
20.02.2018 23:00:00 -2,0 -4,3 -4,5 0,0 0,6 2,6 9 5 14 7 NNO 1024,3 9 0 0,0
20.02.2018 22:00:00 -1,8 -4,1 -3,7 0,1 0,6 2,6 9 5 18 10 NO 1024,1 8 0 0,0
20.02.2018 21:00:00 -0,8 -4,6 -2,5 0,1 0,6 2,6 11 6 19 10 ONO 1023,6 9 0 0,0
20.02.2018 20:00:00 -0,2 -3,9 -1,8 0,2 0,7 2,6 11 6 21 12 ONO 1023,5 10 0 0,0
20.02.2018 19:00:00 -0,4 -3,9 -2,0 0,2 0,7 2,6 13 7 16 8 NO 1022,9 10 0 0,0
20.02.2018 18:00:00 0,4 -4,0 -1,3 0,3 0,8 2,6 12 6 21 12 NO 1022,3 10 0 0,0
20.02.2018 17:00:00 1,9 -4,4 1,0 0,9 0,8 2,6 17 9 31 17 ONO 1021,8 13 55 0,0
20.02.2018 16:00:00 2,7 -4,8 2,0 1,6 0,6 2,6 19 10 28 15 ONO 1021,5 16 60 0,0
20.02.2018 15:00:00 3,1 -4,7 4,2 1,9 0,4 2,6 16 9 29 16 ONO 1021,5 25 60 0,0
20.02.2018 14:00:00 2,9 -5,8 4,5 0,1 0,4 2,6 19 10 28 15 O 1021,4 18 60 0,0
20.02.2018 13:00:00 2,4 -5,2 3,8 0,0 0,4 2,6 19 10 29 16 ONO 1021,6 18 60 0,0
20.02.2018 12:00:00 1,9 -4,8 3,1 0,0 0,4 2,6 23 13 32 17 O 1021,6 18 60 0,0
20.02.2018 11:00:00 1,2 -4,3 2,2 0,0 0,4 2,6 18 10 26 14 O 1021,5 15 60 0,0
20.02.2018 10:00:00 0,4 -3,8 1,1 0,0 0,4 2,6 17 9 23 13 O 1021,5 10 60 0,0
20.02.2018 09:00:00 -0,5 -3,9 -0,2 -0,1 0,4 2,7 14 8 20 11 O 1021,6 8 35 0,0
20.02.2018 08:00:00 -1,5 -3,9 -2,4 -0,1 0,4 2,7 11 6 16 9 O 1021,4 8 0 0,0
20.02.2018 07:00:00 -1,5 -3,6 -2,5 -0,1 0,4 2,7 10 5 20 11 O 1021,2 6 0 0,0
20.02.2018 06:00:00 -1,5 -3,6 -2,3 0,0 0,4 2,7 12 6 16 9 ONO 1020,9 5 0 0,0
20.02.2018 05:00:00 -1,9 -3,6 -3,5 0,0 0,4 2,7 6 3 11 6 NO 1021,0 5 0 0,0
20.02.2018 04:00:00 -1,2 -3,1 -2,2 0,0 0,4 2,7 7 4 14 7 O 1021,0 5 0 0,0
20.02.2018 03:00:00 -1,5 -3,3 -2,4 0,0 0,4 2,7 8 4 10 5 NO 1021,0 5 0 0,0
20.02.2018 02:00:00 -1,6 -3,3 -3,6 0,0 0,4 2,7 4 2 9 5 ONO 1021,0 6 0 0,0
20.02.2018 01:00:00 -1,0 -3,7 -2,2 0,0 0,4 2,7 9 5 14 7 OZO 1021,1 7 0 0,0
20.02.2018 00:00:00 -0,7 -3,6 -2,5 0,0 0,4 2,7 10 6 15 8 OZO 1021,0 7 0 0,0
19.02.2018 23:00:00 -0,2 -4,0 -1,5 0,0 0,4 2,7 11 6 16 9 OZO 1021,0 9 0 0,0
19.02.2018 22:00:00 0,0 -3,7 -1,3 0,0 0,4 2,7 11 6 14 8 OZO 1021,0 10 0 0,0
19.02.2018 21:00:00 0,3 -3,4 -1,0 0,0 0,4 2,7 11 6 14 7 OZO 1021,1 11 0 0,0
19.02.2018 20:00:00 0,8 -2,9 -1,7 0,0 0,4 2,7 5 3 8 4 ZO 1021,2 10 0 0,0
19.02.2018 19:00:00 1,3 -2,5 -0,5 -0,1 0,4 2,7 6 3 12 7 ZO 1021,1 11 0 0,0
19.02.2018 18:00:00 2,1 -2,8 0,7 0,1 0,4 2,7 10 6 23 12 ZO 1021,0 13 0 0,0
19.02.2018 17:00:00 3,2 -2,5 2,1 0,8 0,3 2,7 13 7 18 10 ZO 1020,8 17 0 0,0
19.02.2018 16:00:00 3,8 -2,6 3,1 1,8 0,2 2,7 11 6 18 10 ZZO 1020,9 21 43 0,0
19.02.2018 15:00:00 4,6 -2,7 5,5 2,2 0,2 2,7 13 7 19 11 Z 1021,1 22 58 0,0
19.02.2018 14:00:00 4,3 -2,4 5,3 1,6 0,2 2,7 11 6 20 11 ZZO 1021,3 22 45 0,0
19.02.2018 13:00:00 3,8 -2,9 4,5 1,3 0,2 2,7 11 6 23 12 Z 1021,8 22 56 0,0
19.02.2018 12:00:00 3,2 -3,0 4,4 -0,1 0,2 2,7 14 7 23 12 Z 1022,5 20 54 0,0
19.02.2018 11:00:00 2,2 -2,6 3,2 -0,1 0,2 2,7 13 7 23 12 Z 1022,7 18 58 0,0
19.02.2018 10:00:00 0,9 -3,2 1,1 -0,1 0,2 2,7 14 8 20 11 Z 1022,8 16 18 0,0
19.02.2018 09:00:00 0,2 -3,0 0,4 -0,1 0,2 2,7 11 6 19 10 ZZO 1023,5 16 9 0,0
19.02.2018 08:00:00 -0,3 -3,5 -1,2 -0,1 0,2 2,7 10 5 17 9 ZZO 1023,6 18 0 0,0
19.02.2018 07:00:00 -0,3 -3,6 -1,2 -0,1 0,2 2,7 12 6 19 10 ZZO 1023,7 25 0 0,0
19.02.2018 06:00:00 0,1 -3,4 -0,8 -0,1 0,2 2,7 11 6 20 11 ZZO 1023,8 30 0 0,0

tt = temperatuur
td = dauwpunt
tt 5cm = temperatuur 5cm
tt -5cm = temperatuur -5cm
tt -20cm = temperatuur -20cm
tt -100cm = temperatuur -100cm
ff = windsnelheid
fx = windstoten
dd = windrichting
ppp = luchtdruk
vv = zicht
sd = Zonneschijnduur
rr = neerslag

Weerstations in de omgeving